Temp
41 41 41 41 41 41 40 37 37 35 33 32 30 30 28 27 25 24 24 25 24 23 23 21 20 19 18 18 19 20 19 18 20 20 19 20 19 17 15 16 17 20
40 40 41 41 41 41 40 39 38 36 35 33 33 31 29 27 25 24 24 23 24 23 23 22 21 19 18 18 18 19 19 18 18 18 17 18 18 16 15 14 14 17
40 39 40 39 39 39 39 39 38 37 36 35 34 32 29 28 25 25 25 24 23 23 22 21 19 18 18 18 18 18 18 18 16 17 17 17 20 18 17 16 17 15
39 39 39 39 39 39 39 38 38 37 37 35 33 32 30 27 25 24 24 24 24 23 23 22 20 19 17 16 17 18 17 17 17 16 16 18 18 18 17 17 16 15
39 39 39 39 39 39 39 37 37 36 36 35 34 32 30 27 25 24 25 24 24 23 22 21 21 20 18 16 16 17 16 16 16 15 15 16 16 16 16 16 14 12
39 39 39 38 38 38 37 37 36 36 36 34 33 32 30 28 26 24 24 23 23 23 22 21 20 19 17 16 16 17 16 16 14 13 13 13 14 14 13 14 11 10
37 37 36 38 36 37 36 36 35 36 35 35 33 30 30 27 26 25 24 23 22 22 21 18 18 17 16 15 15 15 15 15 13 12 11 12 12 11 10 10 10 8
36 37 36 36 36 35 35 35 35 33 34 31 29 30 29 27 26 23 24 23 22 21 21 18 17 16 15 14 14 14 13 12 11 10 9 9 10 8 9 8 8 6
35 35 33 33 32 32 31 32 31 31 30 28 27 27 26 25 25 22 23 23 21 20 20 18 18 16 15 14 14 13 11 11 10 9 8 8 7 7 7 7 5 5
33 32 32 30 29 31 30 31 30 30 29 28 27 27 25 24 23 22 21 20 20 18 18 16 17 17 15 13 13 12 11 11 9 9 9 8 7 7 7 6 4 4
30 31 29 30 29 29 28 29 29 28 27 25 25 24 23 22 21 21 20 19 17 18 18 16 16 16 15 12 12 12 12 11 9 9 9 8 8 7 7 5 4 4
29 28 28 27 27 27 27 28 27 26 25 24 23 22 21 21 20 20 19 18 17 18 17 16 16 15 13 12 11 12 11 10 9 9 9 7 6 6 6 6 4 4
27 27 27 26 26 26 27 26 25 25 23 22 22 21 20 19 19 18 18 17 18 18 17 16 16 14 12 11 11 12 10 9 8 7 7 6 6 6 7 6 6 5
26 27 26 26 26 25 25 25 24 23 22 22 22 19 19 18 18 18 17 17 17 17 17 15 14 13 13 12 11 10 9 8 7 6 6 6 6 6 6 6 5 5
25 25 25 24 23 23 23 22 23 22 22 21 20 19 19 18 19 18 17 16 16 16 16 15 14 13 13 11 9 8 8 6 6 6 5 5 5 5 5 5 5 5
24 23 23 22 22 21 21 21 21 20 19 19 19 19 18 17 17 16 15 15 15 14 14 13 13 13 11 9 10 9 7 6 5 5 5 5 4 3 3 4 4 4
22 22 21 20 20 20 20 20 20 19 18 18 18 17 17 16 15 14 14 14 14 13 12 12 11 11 9 12 14 12 7 6 5 4 4 3 3 3 3 3 3 3
22 21 20 20 20 19 19 19 19 17 17 16 16 16 16 15 14 13 13 13 12 12 11 11 11 9 12 15 15 15 10 6 6 5 4 3 2 2 3 4 4 3
21 20 19 18 18 19 18 18 17 17 15 15 14 15 15 13 12 12 12 12 11 10 10 10 9 9 13 16 17 17 16 8 6 5 4 3 3 2 2 3 5 5
21 20 19 18 19 18 18 17 16 15 16 16 15 14 12 12 12 11 11 10 10 9 9 9 8 8 11 16 18 18 18 13 5 4 4 4 4 3 3 3 4 5
21 20 19 19 18 18 17 16 16 15 15 14 14 13 12 11 11 10 10 9 9 9 9 8 8 8 11 15 17 18 18 18 7 6 5 5 5 5 5 5 5 6
21 20 19 18 18 17 16 16 15 14 13 14 14 14 13 13 12 11 9 8 8 8 8 7 8 8 10 14 17 18 18 16 13 7 7 6 6 7 7 8 8 8
22 20 19 18 18 16 15 15 14 14 15 15 13 13 12 12 11 11 10 9 7 7 6 7 7 7 9 12 15 17 17 15 15 14 12 10 9 10 9 9 9 10
22 20 19 18 17 16 16 15 15 15 14 15 13 12 12 11 11 10 11 10 8 6 6 6 7 7 7 10 14 17 16 14 14 13 12 12 11 11 11 11 11 11
22 21 19 18 17 16 16 15 15 15 15 15 14 13 12 12 10 10 10 10 9 7 6 5 6 6 6 7 12 16 15 14 13 12 10 10 10 10 10 10 10 10
22 19 19 18 17 16 16 15 16 15 15 14 13 13 13 12 10 10 8 8 8 6 5 5 5 5 5 6 9 13 16 14 13 11 9 9 9 9 9 9 8 8
MSLP
1021.44 1021.60 1021.80 1022.00 1022.20 1022.44 1022.88 1023.36 1023.72 1024.20 1024.52 1024.88 1025.24 1025.60 1026.00 1026.40 1026.92 1027.40 1027.72 1028.04 1028.28 1028.52 1028.76 1029.00 1029.28 1029.56 1029.84 1030.08 1030.20 1030.24 1030.48 1030.76 1030.76 1030.76 1030.84 1030.72 1031.00 1031.32 1031.64 1031.80 1031.80 1031.56
1020.76 1021.12 1021.36 1021.60 1021.80 1022.04 1022.32 1022.76 1023.20 1023.60 1024.00 1024.40 1024.68 1025.16 1025.68 1026.16 1026.68 1027.08 1027.36 1027.68 1028.04 1028.24 1028.48 1028.80 1029.04 1029.32 1029.60 1029.80 1030.00 1030.16 1030.36 1030.56 1030.72 1030.88 1030.92 1030.84 1031.00 1031.44 1031.68 1031.92 1032.04 1032.04
1020.36 1020.64 1020.92 1021.12 1021.28 1021.56 1021.96 1022.36 1022.76 1023.12 1023.40 1023.80 1024.36 1024.76 1025.24 1025.76 1026.32 1026.68 1027.00 1027.28 1027.64 1027.96 1028.28 1028.56 1028.88 1029.16 1029.40 1029.56 1029.80 1029.96 1030.12 1030.36 1030.64 1030.84 1030.80 1030.80 1030.72 1030.92 1031.20 1031.60 1031.64 1032.00
1020.00 1020.20 1020.48 1020.76 1021.04 1021.28 1021.60 1022.00 1022.32 1022.68 1023.00 1023.40 1023.80 1024.36 1024.88 1025.44 1025.88 1026.32 1026.60 1026.96 1027.20 1027.52 1027.88 1028.24 1028.60 1028.92 1029.20 1029.44 1029.68 1029.72 1029.96 1030.24 1030.36 1030.64 1030.72 1030.60 1030.68 1030.76 1031.00 1031.20 1031.44 1031.76
1019.72 1019.96 1020.20 1020.44 1020.72 1021.00 1021.28 1021.52 1021.80 1022.16 1022.52 1022.84 1023.36 1023.88 1024.44 1025.04 1025.52 1025.92 1026.16 1026.52 1026.76 1027.12 1027.48 1027.88 1028.20 1028.52 1028.88 1029.16 1029.40 1029.48 1029.80 1030.04 1030.28 1030.48 1030.48 1030.48 1030.56 1030.80 1030.96 1031.12 1031.44 1031.72
1019.48 1019.60 1019.84 1020.12 1020.28 1020.52 1020.76 1020.96 1021.28 1021.68 1022.04 1022.48 1022.80 1023.40 1023.92 1024.44 1024.92 1025.32 1025.68 1026.04 1026.28 1026.64 1027.00 1027.40 1027.72 1028.04 1028.40 1028.72 1029.00 1029.08 1029.36 1029.52 1029.92 1030.28 1030.32 1030.40 1030.52 1030.72 1031.00 1031.08 1031.44 1031.72
1018.96 1019.24 1019.44 1019.72 1020.00 1020.20 1020.36 1020.52 1020.80 1021.16 1021.52 1021.92 1022.48 1022.96 1023.40 1024.00 1024.48 1024.92 1025.36 1025.68 1025.96 1026.24 1026.52 1026.88 1027.24 1027.52 1027.92 1028.28 1028.56 1028.72 1028.96 1029.16 1029.60 1030.08 1030.24 1030.28 1030.44 1030.76 1031.12 1031.28 1031.40 1031.72
1018.72 1018.92 1019.20 1019.36 1019.60 1019.80 1019.96 1020.12 1020.36 1020.72 1021.12 1021.64 1022.04 1022.52 1022.96 1023.48 1023.96 1024.48 1024.88 1025.24 1025.60 1025.88 1026.20 1026.56 1026.84 1027.16 1027.52 1027.80 1028.08 1028.36 1028.72 1029.00 1029.40 1029.80 1030.12 1030.36 1030.40 1030.80 1031.00 1031.32 1031.44 1031.72
1018.52 1018.68 1018.84 1019.08 1019.32 1019.40 1019.60 1019.80 1020.08 1020.44 1020.80 1021.28 1021.68 1022.16 1022.64 1023.04 1023.48 1023.92 1024.40 1024.76 1025.12 1025.44 1025.76 1026.12 1026.36 1026.72 1027.00 1027.28 1027.56 1027.88 1028.28 1028.68 1029.08 1029.44 1029.72 1030.04 1030.28 1030.52 1030.80 1031.04 1031.40 1031.56
1018.12 1018.24 1018.48 1018.60 1018.84 1018.88 1019.20 1019.40 1019.72 1020.08 1020.48 1020.96 1021.28 1021.76 1022.24 1022.64 1023.08 1023.52 1024.00 1024.36 1024.68 1025.00 1025.32 1025.68 1026.08 1026.28 1026.60 1026.88 1027.08 1027.28 1027.68 1028.16 1028.68 1029.04 1029.28 1029.60 1029.84 1030.12 1030.40 1030.76 1031.04 1031.36
1017.64 1017.80 1017.96 1018.12 1018.28 1018.48 1018.68 1019.00 1019.28 1019.72 1020.12 1020.48 1020.96 1021.40 1021.80 1022.28 1022.80 1023.16 1023.56 1023.88 1024.20 1024.44 1024.76 1025.20 1025.48 1025.72 1026.12 1026.52 1026.80 1027.00 1027.24 1027.60 1028.08 1028.52 1028.84 1029.16 1029.44 1029.68 1029.96 1030.32 1030.68 1030.84
1017.36 1017.48 1017.52 1017.72 1017.96 1018.12 1018.32 1018.60 1018.96 1019.36 1019.72 1020.20 1020.56 1021.00 1021.52 1021.88 1022.28 1022.64 1022.96 1023.32 1023.64 1023.92 1024.16 1024.52 1024.88 1025.20 1025.56 1025.92 1026.32 1026.60 1026.96 1027.28 1027.72 1028.12 1028.48 1028.84 1029.12 1029.36 1029.56 1029.80 1030.16 1030.40
1016.96 1017.00 1017.24 1017.56 1017.72 1017.96 1018.28 1018.60 1018.88 1019.20 1019.60 1019.96 1020.32 1020.76 1021.20 1021.60 1021.96 1022.28 1022.56 1022.92 1023.20 1023.52 1023.76 1024.12 1024.52 1024.92 1025.32 1025.64 1025.88 1026.20 1026.56 1026.92 1027.44 1027.88 1028.24 1028.60 1028.84 1029.04 1029.16 1029.36 1029.60 1029.88
1016.40 1016.68 1017.04 1017.28 1017.60 1017.92 1018.20 1018.48 1018.80 1019.12 1019.44 1019.88 1020.32 1020.72 1021.00 1021.28 1021.60 1022.00 1022.40 1022.72 1022.96 1023.20 1023.48 1023.84 1024.16 1024.56 1024.92 1025.32 1025.64 1025.88 1026.28 1026.72 1027.12 1027.56 1027.92 1028.16 1028.44 1028.64 1028.80 1028.96 1029.12 1029.36
1016.32 1016.60 1016.88 1017.20 1017.56 1017.84 1018.08 1018.32 1018.60 1018.96 1019.36 1019.72 1020.12 1020.40 1020.68 1020.96 1021.32 1021.76 1022.20 1022.56 1022.84 1023.08 1023.36 1023.64 1023.92 1024.12 1024.36 1024.80 1025.32 1025.76 1026.08 1026.48 1026.76 1027.16 1027.48 1027.80 1028.04 1028.24 1028.40 1028.56 1028.76 1028.92
1015.96 1016.32 1016.60 1016.96 1017.36 1017.56 1017.76 1018.08 1018.36 1018.72 1019.08 1019.44 1019.72 1020.00 1020.32 1020.64 1021.08 1021.40 1021.72 1022.04 1022.36 1022.68 1023.00 1023.28 1023.48 1023.64 1024.00 1024.52 1024.80 1025.16 1025.72 1026.16 1026.60 1026.96 1027.20 1027.40 1027.68 1027.92 1028.08 1028.20 1028.32 1028.48
1015.72 1015.92 1016.28 1016.60 1016.76 1017.12 1017.36 1017.68 1018.00 1018.40 1018.76 1019.04 1019.32 1019.60 1019.92 1020.32 1020.72 1021.04 1021.28 1021.52 1021.84 1022.16 1022.52 1022.76 1023.04 1023.20 1023.76 1024.12 1024.36 1024.84 1025.36 1025.76 1026.16 1026.52 1026.88 1027.16 1027.32 1027.44 1027.48 1027.60 1027.84 1028.08
1015.24 1015.60 1015.96 1016.20 1016.56 1016.68 1016.92 1017.24 1017.64 1018.04 1018.32 1018.56 1018.92 1019.20 1019.56 1020.00 1020.40 1020.56 1020.84 1021.16 1021.52 1021.80 1022.08 1022.24 1022.56 1022.92 1023.36 1023.56 1023.84 1024.12 1024.80 1025.36 1025.76 1026.08 1026.48 1026.76 1027.00 1027.08 1027.08 1027.12 1027.20 1027.48
1014.72 1015.08 1015.40 1015.80 1016.00 1016.28 1016.64 1017.04 1017.36 1017.64 1017.88 1018.12 1018.36 1018.64 1019.20 1019.60 1019.76 1020.24 1020.48 1020.76 1021.08 1021.40 1021.72 1021.96 1022.32 1022.76 1023.00 1023.04 1023.24 1023.44 1023.84 1024.80 1025.28 1025.64 1025.96 1026.20 1026.40 1026.64 1026.72 1026.68 1026.60 1026.68
1014.32 1014.44 1014.68 1014.92 1015.36 1015.84 1016.24 1016.60 1016.96 1017.04 1017.20 1017.52 1018.00 1018.44 1018.72 1019.00 1019.40 1019.68 1020.00 1020.36 1020.60 1020.92 1021.28 1021.56 1021.92 1022.36 1022.64 1022.52 1022.68 1022.88 1023.12 1023.80 1024.72 1025.16 1025.44 1025.60 1025.72 1025.92 1026.12 1026.12 1026.12 1026.08
1014.52 1014.40 1014.28 1014.36 1014.72 1015.16 1015.56 1015.84 1016.16 1016.56 1016.96 1017.24 1017.64 1017.92 1018.24 1018.52 1018.84 1019.28 1019.52 1019.88 1020.20 1020.56 1020.84 1021.16 1021.48 1021.96 1022.24 1022.16 1022.24 1022.44 1022.68 1022.92 1024.04 1024.60 1024.92 1025.00 1025.08 1025.16 1025.28 1025.28 1025.44 1025.48
1014.80 1014.80 1014.80 1014.76 1014.76 1014.84 1015.08 1015.24 1015.48 1015.80 1016.24 1016.72 1017.20 1017.52 1017.84 1018.20 1018.48 1018.76 1019.08 1019.40 1019.80 1020.24 1020.56 1020.76 1021.08 1021.56 1021.84 1021.92 1021.92 1022.08 1022.28 1022.48 1022.92 1023.80 1024.04 1024.16 1024.32 1024.40 1024.44 1024.48 1024.60 1024.72
1014.80 1014.96 1015.00 1015.12 1015.20 1015.16 1014.92 1014.84 1015.00 1015.36 1015.80 1016.16 1016.68 1016.88 1017.28 1017.60 1017.84 1018.08 1018.44 1018.96 1019.48 1019.88 1020.16 1020.40 1020.72 1021.12 1021.48 1021.60 1021.64 1021.68 1021.88 1022.04 1022.20 1022.44 1022.80 1023.12 1023.24 1023.40 1023.60 1023.72 1023.80 1023.88
1014.32 1014.56 1014.76 1014.92 1015.04 1015.04 1014.92 1014.88 1014.96 1015.08 1015.32 1015.52 1015.88 1016.24 1016.56 1016.84 1017.32 1017.76 1018.04 1018.36 1018.84 1019.28 1019.60 1019.96 1020.20 1020.76 1021.20 1021.36 1021.36 1021.36 1021.48 1021.72 1021.84 1021.96 1022.12 1022.32 1022.48 1022.64 1022.76 1022.88 1023.00 1023.16
1013.80 1014.04 1014.24 1014.44 1014.56 1014.64 1014.88 1015.00 1014.92 1014.88 1014.92 1015.24 1015.44 1015.72 1016.08 1016.48 1017.00 1017.32 1017.60 1017.92 1018.32 1018.84 1019.24 1019.68 1019.92 1020.44 1020.92 1021.24 1021.16 1021.04 1021.16 1021.40 1021.56 1021.64 1021.92 1022.08 1022.20 1022.28 1022.40 1022.56 1022.68 1022.80
1013.36 1013.60 1013.76 1013.92 1014.04 1014.32 1014.60 1014.80 1014.88 1014.96 1014.92 1015.00 1015.24 1015.40 1015.72 1016.04 1016.60 1016.88 1017.24 1017.48 1017.88 1018.56 1019.00 1019.40 1019.80 1020.12 1020.56 1020.88 1021.00 1020.80 1020.72 1020.92 1021.12 1021.32 1021.48 1021.72 1021.84 1021.92 1022.08 1022.16 1022.28 1022.36
Wind_Speed
15 13 14 13 13 12 11 12 11 11 10 9 9 9 9 9 10 11 10 8 9 9 8 7 7 6 6 5 5 4 5 4 4 4 5 5 5 6 5 5 4 4
17 15 13 12 11 11 11 12 12 11 11 11 9 9 8 9 10 11 10 10 9 9 9 8 8 8 7 6 7 6 5 6 6 4 5 6 5 6 6 6 5 4
16 16 15 15 13 14 13 11 11 11 11 11 10 9 9 9 10 11 10 10 10 10 9 8 8 8 8 7 7 6 6 6 6 5 5 6 5 6 6 6 5 6
16 16 15 15 14 13 12 12 12 11 10 10 11 10 9 8 10 11 10 11 10 10 10 9 9 8 8 8 8 6 6 6 5 6 5 5 5 5 6 6 6 6
16 15 14 13 13 13 12 13 13 12 12 11 10 11 10 10 11 11 11 11 11 10 10 11 10 10 10 8 9 7 7 6 6 6 6 6 6 6 5 6 6 7
14 14 14 14 14 14 14 14 14 14 13 12 12 10 11 12 11 12 12 12 11 11 11 11 11 10 10 9 9 7 7 6 7 7 7 6 6 6 5 6 6 7
14 14 16 14 14 15 14 14 13 13 13 12 11 11 11 12 12 12 12 12 12 12 12 11 11 10 10 9 9 8 7 7 7 8 7 6 6 6 6 6 6 6
15 13 13 13 14 15 15 14 13 11 12 9 10 11 12 12 13 11 12 13 12 12 12 11 10 10 10 9 9 9 8 6 7 8 7 7 6 7 7 6 6 6
12 13 11 13 14 12 13 12 10 10 9 10 9 9 10 11 12 11 13 13 11 12 12 11 12 11 10 10 9 10 9 8 7 8 9 9 8 8 8 7 7 7
13 11 13 12 13 12 12 11 9 9 8 9 9 8 10 10 10 11 11 11 11 11 11 10 12 11 10 9 10 10 10 10 9 9 8 9 9 8 8 8 8 8
13 12 12 13 13 11 12 12 11 10 9 10 9 9 9 9 9 10 10 11 11 12 12 12 12 12 11 10 9 9 10 9 10 9 9 9 9 8 8 8 8 9
12 11 12 12 12 11 12 11 10 9 8 8 9 9 9 9 11 10 11 11 11 12 12 12 12 11 11 10 11 10 9 8 8 9 8 8 8 8 9 9 9 9
12 12 10 11 11 10 8 7 8 8 9 9 9 9 10 10 10 10 10 11 12 11 11 11 11 10 9 9 10 10 10 9 8 8 8 7 8 8 8 9 9 9
12 10 10 10 8 8 7 8 8 8 8 7 7 9 10 10 11 11 10 10 11 11 11 10 11 10 10 10 10 10 9 9 9 9 9 8 8 8 9 9 9 9
7 7 7 7 7 7 8 9 8 8 8 8 9 10 9 10 9 10 10 10 10 10 10 10 10 10 10 10 10 9 9 9 9 9 9 8 8 8 8 9 9 9
8 7 8 7 8 10 9 8 9 9 9 9 10 10 10 10 10 10 10 11 12 11 10 10 10 8 9 13 12 10 10 8 7 8 9 8 8 8 8 9 9 8
9 9 8 10 10 9 10 11 10 8 9 10 10 10 10 9 10 11 11 11 11 11 11 10 8 7 14 20 21 18 10 9 9 9 9 8 8 9 8 8 8 9
10 8 9 10 9 11 11 10 9 10 11 11 10 11 10 9 10 11 11 10 9 10 10 10 9 10 20 22 22 21 16 10 8 8 8 8 8 8 7 7 8 8
10 10 11 10 11 10 10 9 10 11 11 11 12 10 9 11 11 11 11 10 10 10 11 9 8 12 21 22 22 22 22 15 8 8 8 8 8 9 8 9 8 8
11 11 12 12 11 11 10 11 11 13 12 10 9 10 11 10 11 12 10 10 10 10 10 9 9 12 22 23 23 23 22 17 9 10 10 9 10 9 9 10 10 9
10 11 12 11 12 12 12 13 13 11 11 10 10 11 11 12 12 12 10 10 10 10 10 9 8 15 22 23 22 22 22 18 10 10 9 9 10 10 11 10 11 10
9 9 9 9 10 11 12 13 13 13 12 11 10 10 9 9 9 9 9 11 10 9 9 10 9 18 21 22 22 22 22 15 10 11 10 9 10 10 10 10 10 11
8 9 9 9 9 10 12 12 12 12 11 10 11 11 11 11 11 11 10 10 10 11 11 10 8 15 20 21 22 23 19 13 12 10 10 11 11 11 11 11 11 12
9 10 10 10 10 12 12 11 10 9 11 11 12 12 12 12 10 10 10 10 11 12 11 11 9 13 20 21 23 23 19 14 11 11 11 10 9 10 8 9 11 16
8 10 10 10 11 11 10 10 11 11 10 9 10 9 9 8 9 9 9 9 10 10 10 11 7 10 18 19 22 22 18 13 11 10 11 11 10 10 9 9 9 12
8 9 10 11 11 10 9 10 8 8 10 10 9 9 9 9 9 9 10 9 8 9 9 11 9 8 12 20 21 22 23 14 11 11 11 11 10 9 9 11 10 9
Wind_Direction
207 207 208 210 211 209 203 197 196 194 194 192 192 191 186 180 168 175 182 178 182 179 177 173 167 165 164 165 174 173 176 176 183 181 168 164 152 154 153 157 158 168
206 206 207 210 211 208 208 200 198 195 196 196 195 187 180 171 172 175 181 180 178 183 176 173 173 172 168 171 174 176 176 183 184 171 172 167 156 157 159 160 163 165
203 204 206 209 209 207 204 201 198 199 198 195 188 185 177 172 171 178 181 180 179 179 175 173 170 171 171 174 173 180 182 182 180 174 177 174 170 172 169 170 177 179
207 206 207 209 209 208 202 199 200 201 199 191 189 181 172 170 171 178 180 179 180 179 178 177 174 172 174 172 173 184 181 181 179 170 175 177 178 175 172 178 176 180
208 207 209 210 210 208 204 204 201 201 200 196 185 181 176 172 175 180 180 182 183 180 177 180 178 179 175 177 180 183 175 179 174 176 179 181 182 177 181 178 179 181
211 209 209 210 208 204 206 206 203 202 200 194 190 180 181 178 180 180 182 180 184 181 179 180 179 179 178 178 181 186 177 182 176 178 182 181 180 179 182 184 179 182
207 206 208 208 208 207 208 208 203 200 198 194 182 185 177 181 184 182 184 184 184 184 182 179 178 177 177 176 183 183 181 181 169 178 183 187 180 182 180 189 185 184
211 209 208 207 207 206 208 207 200 194 188 182 184 182 178 180 181 181 184 183 185 184 182 181 177 176 173 177 181 179 180 172 171 176 181 188 184 191 186 189 191 189
210 209 204 205 205 207 208 204 195 188 178 180 184 181 180 180 182 179 181 183 184 185 183 183 182 180 180 180 182 180 180 177 177 179 184 188 192 195 190 186 190 198
210 207 205 205 208 208 207 202 194 189 181 186 184 177 179 184 180 179 180 184 185 186 185 181 183 185 183 184 185 181 181 181 180 189 193 195 196 194 189 188 193 195
212 208 208 208 209 207 207 202 196 192 188 188 182 184 177 175 180 181 182 183 185 186 186 185 187 184 183 184 187 186 185 183 184 188 194 198 199 197 193 191 195 203
211 210 210 207 207 208 204 197 193 191 186 189 183 182 174 181 181 184 186 188 187 189 188 187 186 186 184 179 181 182 183 184 183 189 194 195 195 201 198 199 198 203
212 212 206 207 209 210 204 196 195 193 187 190 186 184 180 186 189 186 189 188 190 189 191 185 186 183 182 178 180 181 181 178 177 186 195 197 203 204 204 204 205 204
214 210 208 209 209 204 200 203 201 197 195 189 179 187 190 190 187 189 190 187 192 191 191 187 186 186 188 184 184 183 177 182 183 187 192 198 201 204 204 207 206 206
201 205 204 205 199 201 204 203 199 197 193 191 190 196 194 194 189 184 182 188 193 194 191 188 188 189 187 181 179 181 182 183 185 186 190 196 199 204 206 206 208 209
203 203 203 199 199 205 205 198 197 194 190 192 194 197 193 191 187 189 186 186 188 191 189 187 192 192 176 175 181 178 182 181 181 191 196 198 197 200 209 208 210 211
202 205 191 200 202 201 202 199 197 188 193 197 197 195 192 184 185 188 192 192 189 185 187 191 190 184 177 194 197 191 178 184 186 195 195 200 203 205 209 207 210 213
205 197 197 203 195 203 199 194 191 192 197 198 196 196 194 187 191 193 191 189 189 191 191 194 197 176 193 201 202 201 189 186 189 192 190 200 205 208 211 211 213 209
199 196 199 199 201 199 196 189 193 197 199 196 198 193 183 191 195 189 195 192 189 190 196 194 194 179 200 203 205 207 202 185 192 189 193 202 203 207 211 212 212 215
203 199 201 202 196 194 192 195 197 204 202 198 190 187 192 194 193 195 191 190 188 191 195 192 191 181 200 206 208 209 208 192 184 189 203 206 205 203 208 209 213 218
217 212 211 202 194 193 195 199 200 201 197 195 193 197 194 194 194 195 194 187 191 193 196 192 190 184 201 207 209 210 213 211 170 186 195 209 208 207 210 209 211 214
226 227 224 212 201 197 197 201 200 198 193 192 195 201 202 195 204 197 193 193 193 186 193 197 191 190 200 206 209 212 213 220 195 184 203 203 207 210 211 212 213 216
235 232 230 219 212 209 209 205 200 199 196 191 194 198 195 196 199 199 198 192 187 191 197 202 192 190 198 205 210 212 215 218 219 211 202 208 213 211 212 216 218 219
230 229 228 222 218 218 218 216 210 205 200 193 196 193 198 197 191 197 196 194 190 193 192 196 193 185 194 204 210 213 214 217 218 218 222 221 227 226 222 217 217 217
229 227 227 223 223 223 216 215 210 208 204 194 198 197 199 185 187 196 196 196 193 193 179 190 189 184 193 202 211 214 215 216 216 219 217 220 222 227 223 227 230 231
232 222 224 222 224 222 217 216 215 208 205 197 198 199 200 198 187 197 191 193 182 181 187 194 192 188 188 200 208 215 216 213 215 214 217 216 221 223 230 237 236 236